Location: Lake Arresoe
(56.0000°N, 12.5000°E)
Time: 09:06:06
(UTC+02:00)

Cosmos 1674 - Pass Details

Date: 19 August 2020
Orbit: 495 x 517 km, 82.5° (Epoch: 23 September)

Event Time Altitude Azimuth Distance (km) Brightness Sun altitude
Rises 01:32:15 0° 344° (NNW) 2,606 7.5 -21.2°
Reaches altitude 10° 01:34:24 10° 340° (NNW) 1,720 6.3 -21.2°
Enters shadow 01:38:03 52° 265° (W) 636 3.0 -21.1°
